sat.trackr.live / text

‹ back to catalog

STARLINK-35801

NORAD 66265 · 2025-247A

PAYLOAD ACTIVE UNKNOWN

§ Identity

Operator
Country
US
Launch date
2025-10-31
Launch site
AFWTR
Launch vehicle
Mass (kg)
RCS (m²)

Purposes: comms

External: N2YO · Heavens-Above · Gunter

§ Orbital elements

Epoch: 2026-05-25T03:08:29.707296Z

Period
93.85 min
Inclination
53.1589°
Eccentricity
0.0001243
Mean motion
15.34402473 rev/d
Perigee alt
461.8 km
Apogee alt
463.5 km
Semi-major
6,840.8 km
B*
3.4510e-4
RAAN
195.2182°
Arg perigee
81.9303°
Mean anomaly
278.1841°
Rev number
3,275

§ Raw data

STARLINK-358011 66265U 25247A   26145.13089939  .00011302  00000+0  34510-3 0  99972 66265  53.1589 195.2182 0001243  81.9303 278.1841 15.34402473 32751

JSON: /api/v1/satellites/66265 · /tle

For live sub-satellite position, see the globe view (requires WebGL).

§ Visibility from observer

Set your observer location to see the next 7 days of passes ≥ 10°. The values pass through the URL so the page stays shareable.

No JS? Fill the form by hand. The geolocation button needs JavaScript.